Regional Weather Roundup
Issued by NWS Mobile, AL

Home | Current Version | Previous Version | Text Only | Print | Product List | Glossary On
Versions: 1 2 3 4 5 6 7 8 9 10 11 12 13 14 15 16 17 18 19 20 21 22 23 24 25 26 27 28 29 30 31 32 33 34 35 36 37 38 39 40 41 42 43 44 45 46 47 48 49 50
000
ASUS44 KMOB 161210
RWRMOB
REGIONAL WEATHER ROUNDUP
NATIONAL WEATHER SERVICE MOBILE AL
700 AM CDT TUE SEP 16 2014

NOTE: "FAIR" INDICATES FEW OR NO CLOUDS BELOW 12,000 FEET WITH NO
      SIGNIFICANT WEATHER AND/OR OBSTRUCTIONS TO VISIBILITY.

  * THESE STATIONS ARE PART OF THE UNIVERSITY OF SOUTH ALABAMA
    MESONET AND ARE NOT UNDER NWS OR FAA QUALITY CONTROL.

ALZ061>064-161300-
COASTAL ALABAMA

CITY           SKY/WX    TMP DP  RH WIND       PRES   REMARKS
MOBILE REG APT MOCLDY    73  73 100 N6        30.07S
6HR MIN TEMP:  72; 6HR MAX TEMP:  77;

BROOKLEY FIELD PTCLDY    75  75 100 N6        30.07S
6HR MIN TEMP:  75; 6HR MAX TEMP:  80;

USA CAMPUS*      N/A     73  73 100 CALM      30.06S
DOG RIVER*       N/A     77  75  94 VRB5      30.06R


CITY           SKY/WX    TMP DP  RH WIND       PRES   REMARKS
MOUNT VERNON*    N/A     68  68 100 CALM      30.07S
SARALAND*      NOT AVBL
BAY MINETTE*   NOT AVBL
LOXLEY*          N/A    N/A N/A N/A CALM      30.06R
ROBERTSDALE*     N/A    N/A N/A N/A CALM      30.06R
FAIRHOPE*        N/A     73  73 100 NW3       30.05S
ELBERTA*       NOT AVBL
FOLEY*         NOT AVBL
GRAND BAY*       N/A     73  73 100 N2        30.05R
DAUPHIN ISLND* NOT AVBL
BON SCOUR NWR* NOT AVBL
GULF SHORES    MOCLDY    76  75  96 N3        30.05S

$$

ALZ051>060-161300-
INTERIOR SOUTHWEST AND SOUTH CENTRAL ALABAMA

CITY           SKY/WX    TMP DP  RH WIND       PRES   REMARKS
GREENVILLE     FOG       74  72  93 N5        30.07S VSB 1/2
6HR MIN TEMP:  73; 6HR MAX TEMP:  74;

EVERGREEN      MOCLDY    74  71  91 CALM      30.07S
6HR MIN TEMP:  73; 6HR MAX TEMP:  76;

CASTLEBERRY*   NOT AVBL
ATMORE*          N/A     72  72 100 CALM      30.08R
DIXIE*         NOT AVBL
ANDALUSIA/OPP  HAZE      77  72  83 CALM      30.07R VSB 1/4
6HR MIN TEMP:  76; 6HR MAX TEMP:  79;

ANDALUSIA*     NOT AVBL
FLORALA APT    PTCLDY    74  72  93 CALM      30.08S
6HR MIN TEMP:  73; 6HR MAX TEMP:  75;

FLORALA*         N/A     72  70  94 CALM      30.04R

$$

FLZ001>006-161300-
WESTERN FLORIDA PANHANDLE

CITY           SKY/WX    TMP DP  RH WIND       PRES   REMARKS
PENSACOLA      PTCLDY    74  74 100 CALM      30.05R
6HR MIN TEMP:  73; 6HR MAX TEMP:  76;

NAS PENSACOLA  MOCLDY    75  74  96 NW3       30.05R
6HR MIN TEMP:  74; 6HR MAX TEMP:  78;

MILTON         MOCLDY    73  70  90 CALM      30.06R
6HR MIN TEMP:  72; 6HR MAX TEMP:  76;

WHTNG S FIELD    N/A     75  72  90 CALM      30.06R
6HR MIN TEMP:  73; 6HR MAX TEMP:  77;



CITY           SKY/WX    TMP DP  RH WIND       PRES   REMARKS
WALNUT HILL*   NOT AVBL
JAY*           NOT AVBL
DUKE FIELD     PTCLDY    73  73 100 S2        30.06R
CRESTVIEW      CLEAR     72  71  97 CALM      30.06F
6HR MIN TEMP:  72; 6HR MAX TEMP:  76;

VALPARAISO     PTCLDY    77  74  92 CALM      30.06R
6HR MIN TEMP:  76; 6HR MAX TEMP:  78;

DESTIN         MOCLDY    79  76  90 CALM      30.05R
6HR MIN TEMP:  79; 6HR MAX TEMP:  82;


$$

MSZ076-079-161300-
INTERIOR SOUTHEAST MISSISSIPPI

CITY           SKY/WX    TMP DP  RH WIND       PRES   REMARKS
LEAKESVILLE*   NOT AVBL
AGRICOLA*      NOT AVBL

$$

MARINE OBSERVATIONS

STATION/POSITION TIME  TEMP    WIND        PRES    WAVE
                       AIR SEA DIR/SP/G            HT/PER
                 (UTC) (F)     (DEG/KT/KT) (MB)    (FT/S)
PASCAGOULA       1200   77     350/  3/  4 1017.5S
PETIT BOIS ISLND 1200   81     340/  5/  6 1017.9S
GRAND BAY        1100   78     350/  3     1018.0S
KATRINA CUT      1100   82        CALM     1018.3R
CEDAR POINT      1100   80     350/  2     1017.3F
E DAUPHIN ISLAND 1056   81     210/  5/  6 1017.4R
MIDDLE BAY LIGHT 1100   80     340/  2     1016.9R
USCG MOBILE BAY  1200   77 88  360/  4/  5 1016.9F
STATE DOCKS      1200                      1017.8R
MEAHER PARK      1100   77      20/  1     1017.6R
WEEKS BAY        1100   74                   N/A
12 S ORANGE BCH  1200   81 86  290/ 10/ 12 1017.3F   3/ 6
PENSACOLA BAY    1200   79 87   30/  2/  2 1017.8R
64 S DAUPHIN ISL 1056   77 85  310/ 12/ 14 1018.1    2/ 7
67 S FORT MORGAN 1100   80     VRB  8      1018.0S

$$

SELECTED LOCATIONS ACROSS THE REGION

CITY           SKY/WX    TMP DP  RH WIND       PRES   REMARKS
NEW ORLEANS    PTCLDY    76  74  93 W3        30.06R
GULFPORT       CLEAR     74  72  93 CALM      30.05R
PASCAGOULA AP  CLOUDY    74  74 100 N5        30.06R FOG
PASCAGOULA*      N/A     75  75 100 N3        30.05S
HATTIESBURG    PTCLDY    73  71  93 CALM      30.08S
LAUREL         CLEAR     70  66  88 CALM      30.09S
MERIDIAN       CLEAR     72  70  93 N3        30.09R
JACKSON        MOCLDY    73  70  90 CALM      30.10R
MONTGOMERY     CLOUDY    73  71  93 CALM      30.07S
TROY           CLOUDY    73  72  96 CALM      30.08S FOG
KINSTON*       NOT AVBL
GENEVA*          N/A     68  66  94 CALM      30.08R
ASHFORD*       NOT AVBL
DOTHAN         FOG       73  73 100 CALM      30.10S VSB<1/4
PANAMA CITY    LGT RAIN  77  73  88 S3        30.05F

$$




USA.gov is the U.S. government's official web portal to all federal, state and local government web resources and services.